Location: Colle Santa Colomba
(42.0333°N, 12.5667°E)
Time: 03:38:57
(UTC+00:00)

Cosmos 1408 - Pass Details

Date: 25 October 2021
Orbit: 465 x 490 km, 82.6° (Epoch: 15 November)

Event Time Altitude Azimuth Distance (km) Brightness Sun altitude
Rises 17:03:28 0° 8° (N) 2,528 6.0 -10.0°
Reaches altitude 10° 17:06:03 10° 27° (NNE) 1,640 4.9 -10.5°
Maximum altitude 17:08:38 19° 73° (ENE) 1,198 3.9 -11.0°
Enters shadow 17:09:46 16° 98° (E) 1,291 4.1 -11.2°
